Погода в Скуграх

Россия / Псковская область     57°51′01″N   29°53′14″E
темп.,
°C
ветер,
м/с
пор.,
м/с
влажн.,
%
обл.,
%
осадки,
мм/ч
давл.,
гПа
погр.,
м
17 октября, вс
вс1700:00+7зюз6137647 0.2 10061166
03:00+7зюз6138284 0.3 1006944
06:00+7зюз5138395 0.8 1006810
09:00+7зюз5128380 0.9 1006818
12:00+8з51172100 0.3 10071254
15:00+9з41063100 0.4 10071390
18:00+7зюз3867100 0.1 1008269
21:00+5зюз4108297 0.2 1008429
18 октября, пн
пн1800:00+4зюз3109080 0.1 1008414
03:00+3зюз411900 0.1 1008426
06:00+3зюз5138190 0.0 1008608
09:00+3з5117796 0.0 10081079
12:00+6з5107399 0.1 10101298
15:00+7зсз5106895 0.3 10101233
18:00+5зсз497687 0.1 1012609
21:00+3зсз3108459 0.1 1013497
19 октября, вт
вт1900:00+2зсз399262 0.0 1015332
03:00+2зсз3893100 0.0 1017328
06:00+3зсз388597 0.2 1017512
09:00+2сз498388 0.3 1019855
12:00+4сз585973 0.1 10201434
15:00+5сз48505 0.1 10211528
18:00+2сз26645 0.0 1022162
21:00−1сз227649 0.0 102330
20 октября, ср
ср2000:00−1з0076100 0.0 102310
03:00−1ююв237280 0.0 102295
06:000ююв3871100 0.0 1020271
09:00+1ююв41168100 0.0 1018485
12:00+2ююв51485100 0.1 1014593
15:00+2ююв61492100 1.0 1010609
18:00+3ююв61494100 2.6 1005631
21:00+4ю61695100 4.4 1001666
21 октября, чт
чт2100:00+7ююз61696100 1.9 998720
03:00+11юз61692100 1.9 995928
06:00+12юз71589100 0.1 9941081
09:00+13юз71686100 0.1 9931361
12:00+13юз71584100 0.0 9921240
15:00+13юз71485100 0.1 9911080
18:00+13ююз71881100 0.1 9891424
21:00+12юз71875100 1.4 9881913